Regional Weather Roundup
Issued by NWS

Home | Current Version | Previous Version | Graphics & Text | Print | Product List | Glossary On
Versions: 1 2 3 4 5 6 7 8 9 10 11 12 13 14 15 16 17 18 19 20 21 22 23 24 25 26 27 28 29 30 31 32 33 34 35 36 37 38 39 40 41 42 43 44 45 46 47 48 49 50
000
ASUS45 KCYS 310210
RWRWY

WYOMING REGIONAL WEATHER ROUNDUP
NATIONAL WEATHER SERVICE CHEYENNE WY
800 PM MDT WED JUL 30 2014

NOTE:  "FAIR" INDICATES FEW OR NO CLOUDS BELOW 12,000 FEET
WITH NO SIGNIFICANT WEATHER AND/OR OBSTRUCTIONS TO VISIBILITY.

WYZ001-310300-
YELLOWSTONE NATIONAL PARK

CITY           SKY/WX    TMP DP  RH WIND       PRES   REMARKS
LK YELLOWSTONE   N/A     62  46  55 CALM      30.44S
W YELLOWSTONE  NOT AVBL

$$
WYZ002>013-054>058-071-098>099-310300-
NORTHERN WYOMING

CITY           SKY/WX    TMP DP  RH WIND       PRES   REMARKS
JACKSON        CLEAR     64  50  59 SW6       30.34R
CODY           NOT AVBL
GREYBULL       CLOUDY    80  43  26 S5        30.16R
WORLAND        CLOUDY    80  49  33 NE3       30.18S
SHERIDAN       CLOUDY    74  51  44 SW5       30.19S
BUFFALO        MOCLDY    74  34  23 CALM      30.27S
GILLETTE       PTCLDY    73  41  31 E5        30.22R
HULETT         FAIR      70  50  49 MISG      30.24
NEWCASTLE      FAIR      73  37  27 N6        30.21

$$
WYZ014>020-022>026-101>103-310300-
CENTRAL WYOMING

CITY           SKY/WX    TMP DP  RH WIND       PRES   REMARKS
BIG PINEY      CLOUDY    59  48  67 N3        30.40S
PINEDALE       PTCLDY    61  45  55 W8        30.42R
DUBOIS         FAIR      63  30  29 SE12      30.40R
LANDER         CLOUDY    69  44  40 W5        30.28F
RIVERTON       CLOUDY    70  45  40 NW9       30.29S
CASPER         CLOUDY    72  41  32 N6        30.27S
DOUGLAS        CLOUDY    72  49  44 SW6       30.25F

$$
WYZ021-027>030-104>119-310300-
SOUTHERN WYOMING

CITY           SKY/WX    TMP DP  RH WIND       PRES   REMARKS
EVANSTON       CLOUDY    59  53  80 E16       30.38S
KEMMERER       CLOUDY    57  46  67 NE6       30.41S
FORT BRIDGER   CLOUDY    60  55  82 E7        30.42S
ROCK SPRINGS   CLOUDY    60  45  57 E15       30.37S
DIXON          CLOUDY    63  52  69 NE10      30.34R
RAWLINS        CLOUDY    60  51  72 E8        30.38R
SARATOGA       LGT RAIN  59  50  72 S3        30.40R
LARAMIE        CLOUDY    56  50  80 CALM      30.41S
CHEYENNE       CLOUDY    58  55  90 SW12      30.36S
TORRINGTON     CLOUDY    69  58  67 S8        30.21F
PINE BLUFFS    FAIR      59  55  88 SW7       30.32R

$$



USA.gov is the U.S. government's official web portal to all federal, state and local government web resources and services.